TimeCST,TemperatureF,Dew PointF,Humidity,Sea Level PressureIn,VisibilityMPH,Wind Direction,Wind SpeedMPH,Gust SpeedMPH,PrecipitationIn,Events,Conditions,WindDirDegrees,DateUTC
12:56 AM,23.0,17.1,78,29.68,-9999.0,Calm,Calm,-,N/A,,Unknown,0,2013-02-13 06:56:00
1:56 AM,24.1,19.0,81,29.67,-9999.0,West,4.6,-,N/A,,Unknown,260,2013-02-13 07:56:00
2:56 AM,26.1,19.0,75,29.65,-9999.0,NW,10.4,24.2,N/A,,Unknown,320,2013-02-13 08:56:00
3:56 AM,26.1,19.0,75,29.64,-9999.0,NW,11.5,21.9,N/A,,Unknown,320,2013-02-13 09:56:00
4:56 AM,27.0,19.0,72,29.63,-9999.0,NW,10.4,18.4,N/A,,Unknown,320,2013-02-13 10:56:00
5:56 AM,28.9,21.0,72,29.64,-9999.0,SSW,16.1,20.7,N/A,,Unknown,210,2013-02-13 11:56:00
6:56 AM,27.0,19.0,72,29.64,-9999.0,SW,6.9,-,N/A,,Unknown,230,2013-02-13 12:56:00
7:56 AM,27.0,19.9,75,29.65,-9999.0,WSW,4.6,-,N/A,,Unknown,240,2013-02-13 13:56:00
8:56 AM,28.9,21.9,75,29.64,-9999.0,WSW,9.2,-,N/A,,Unknown,240,2013-02-13 14:56:00
9:56 AM,32.0,21.9,66,29.63,-9999.0,Calm,Calm,-,N/A,,Unknown,0,2013-02-13 15:56:00
10:56 AM,36.0,25.0,64,29.63,-9999.0,WSW,6.9,-,N/A,,Unknown,250,2013-02-13 16:56:00
11:56 AM,32.0,25.0,75,29.63,-9999.0,SSW,11.5,-,N/A,,Unknown,210,2013-02-13 17:56:00
12:56 PM,36.0,24.1,62,29.62,-9999.0,Variable,4.6,-,N/A,,Unknown,0,2013-02-13 18:56:00
1:56 PM,32.0,21.9,66,29.64,-9999.0,NNW,6.9,-,N/A,,Unknown,330,2013-02-13 19:56:00
2:56 PM,32.0,21.9,66,29.65,-9999.0,Variable,4.6,-,N/A,,Unknown,0,2013-02-13 20:56:00
3:56 PM,30.0,19.9,66,29.65,-9999.0,Variable,6.9,-,N/A,,Unknown,0,2013-02-13 21:56:00
4:56 PM,30.0,19.9,66,29.66,-9999.0,Calm,Calm,-,N/A,,Unknown,0,2013-02-13 22:56:00
5:56 PM,30.0,19.9,66,29.67,-9999.0,Calm,Calm,-,N/A,,Unknown,0,2013-02-13 23:56:00
6:56 PM,28.9,21.0,72,29.68,-9999.0,Calm,Calm,-,N/A,,Unknown,0,2013-02-14 00:56:00
7:56 PM,28.9,21.9,75,29.69,-9999.0,Calm,Calm,-,N/A,,Unknown,0,2013-02-14 01:56:00
8:56 PM,28.9,21.9,75,29.69,-9999.0,Calm,Calm,-,N/A,,Unknown,0,2013-02-14 02:56:00
9:56 PM,28.9,21.0,72,29.69,-9999.0,Calm,Calm,-,N/A,,Unknown,0,2013-02-14 03:56:00
10:56 PM,28.9,21.9,75,29.68,-9999.0,Calm,Calm,-,N/A,,Unknown,0,2013-02-14 04:56:00
11:56 PM,28.9,21.9,75,29.69,-9999.0,Calm,Calm,-,N/A,,Unknown,0,2013-02-14 05:56:00